Private Wetterstation Wechselburg
Wetterdaten: Dienstag, 17.08.2021
Datum Zeit Temp. +2m Bodentemp. Temp.+5cm Temp. Wind Windchill X Diff Temp. Feuchte +2m Feuchte +5cm Luftdruck Regen Wind Richtung Richtung Sonnenschein Taupunkt Windchill Windben
17.08.2021 00:00 11,9 C 19,4 C 11,9 C 11,7 C 11,2 C 0,0 C 87 % 92 % 1013,9 hPa 0,0 l/m 0,2 km/h (0 Bft) S-SW 202 0 min 9,8 C 11,2 C 0,0 km/h (0 Bft)
17.08.2021 00:05 11,7 C 19,4 C 11,9 C 11,5 C 11,2 C 0,0 C 87 % 92 % 1013,9 hPa 0,0 l/m 0,2 km/h (0 Bft) S 180 0 min 9,6 C 11,2 C 0,0 km/h (0 Bft)
17.08.2021 00:10 11,7 C 19,4 C 11,8 C 11,5 C 11,2 C 0,0 C 87 % 92 % 1013,9 hPa 0,0 l/m 0,0 km/h (0 Bft) SW 225 0 min 9,6 C 11,2 C 0,0 km/h (0 Bft)
17.08.2021 00:15 11,6 C 19,4 C 11,8 C 11,5 C 11,2 C 0,0 C 87 % 92 % 1013,9 hPa 0,0 l/m 0,2 km/h (0 Bft) S 180 0 min 9,5 C 11,2 C 3,9 km/h (1 Bft)
17.08.2021 00:20 11,6 C 19,4 C 11,8 C 11,5 C 11,3 C 0,0 C 87 % 92 % 1013,4 hPa 0,0 l/m 0,2 km/h (0 Bft) SW 225 0 min 9,5 C 11,3 C 0,0 km/h (0 Bft)
17.08.2021 00:25 11,6 C 19,4 C 11,8 C 11,5 C 11,3 C 0,0 C 87 % 92 % 1013,4 hPa 0,0 l/m 0,3 km/h (0 Bft) SO 135 0 min 9,5 C 11,3 C 0,0 km/h (0 Bft)
17.08.2021 00:30 11,6 C 19,3 C 11,8 C 11,5 C 11,3 C 0,0 C 87 % 92 % 1013,4 hPa 0,0 l/m 0,3 km/h (0 Bft) SW 225 0 min 9,5 C 11,3 C 0,0 km/h (0 Bft)
17.08.2021 00:35 11,5 C 19,3 C 11,8 C 11,4 C 11,2 C 0,0 C 87 % 92 % 1013,4 hPa 0,0 l/m 0,3 km/h (0 Bft) S 180 0 min 9,4 C 11,2 C 1,8 km/h (1 Bft)
17.08.2021 00:40 11,5 C 19,3 C 11,7 C 11,4 C 11,2 C 0,0 C 87 % 93 % 1013,2 hPa 0,0 l/m 0,3 km/h (0 Bft) S 180 0 min 9,4 C 11,2 C 0,0 km/h (0 Bft)
17.08.2021 00:45 11,5 C 19,3 C 11,7 C 11,4 C 11,1 C 0,0 C 87 % 93 % 1013,2 hPa 0,0 l/m 0,2 km/h (0 Bft) S 180 0 min 9,4 C 11,1 C 0,0 km/h (0 Bft)
17.08.2021 00:50 11,3 C 19,3 C 11,7 C 11,2 C 11,0 C 0,0 C 87 % 93 % 1013,2 hPa 0,0 l/m 0,3 km/h (0 Bft) N-NO 22 0 min 9,2 C 11,0 C 2,3 km/h (1 Bft)
17.08.2021 00:55 11,3 C 19,3 C 11,7 C 11,2 C 11,0 C 0,0 C 87 % 93 % 1013,2 hPa 0,0 l/m 0,5 km/h (0 Bft) SW 225 0 min 9,2 C 11,0 C 0,0 km/h (0 Bft)
17.08.2021 01:00 11,3 C 19,2 C 11,6 C 11,2 C 11,0 C 0,0 C 87 % 93 % 1013,6 hPa 0,0 l/m 0,3 km/h (0 Bft) S 180 0 min 9,2 C 11,0 C 0,0 km/h (0 Bft)
17.08.2021 01:05 11,2 C 19,2 C 11,6 C 11,1 C 11,0 C 0,0 C 88 % 93 % 1013,6 hPa 0,0 l/m 0,2 km/h (0 Bft) SW 225 0 min 9,3 C 11,0 C 0,0 km/h (0 Bft)
17.08.2021 01:10 11,2 C 19,2 C 11,5 C 11,1 C 10,9 C 0,0 C 88 % 93 % 1013,6 hPa 0,0 l/m 0,5 km/h (0 Bft) W 270 0 min 9,3 C 10,9 C 1,9 km/h (1 Bft)
17.08.2021 01:15 11,2 C 19,2 C 11,5 C 11,1 C 10,9 C 0,0 C 87 % 93 % 1013,6 hPa 0,0 l/m 0,8 km/h (0 Bft) W-SW 247 0 min 9,1 C 10,9 C 0,0 km/h (0 Bft)
17.08.2021 01:20 11,1 C 19,1 C 11,5 C 11,0 C 10,8 C 0,0 C 88 % 93 % 1013,6 hPa 0,0 l/m 1,0 km/h (0 Bft) S-SO 157 0 min 9,2 C 10,8 C 3,4 km/h (1 Bft)
17.08.2021 01:25 11,1 C 19,1 C 11,5 C 11,0 C 10,8 C 0,0 C 88 % 93 % 1013,6 hPa 0,0 l/m 0,8 km/h (0 Bft) SW 225 0 min 9,2 C 10,8 C 0,0 km/h (0 Bft)
17.08.2021 01:30 11,1 C 19,1 C 11,5 C 11,0 C 10,8 C 0,0 C 88 % 93 % 1013,6 hPa 0,0 l/m 1,0 km/h (0 Bft) W-NW 292 0 min 9,2 C 10,8 C 7,7 km/h (2 Bft)
17.08.2021 01:35 11,1 C 19,1 C 11,5 C 11,0 C 10,8 C 0,0 C 88 % 93 % 1013,6 hPa 0,0 l/m 0,6 km/h (0 Bft) N-NW 337 0 min 9,2 C 10,8 C 0,0 km/h (0 Bft)
17.08.2021 01:40 11,1 C 19,1 C 11,5 C 11,0 C 10,7 C 0,0 C 88 % 93 % 1013,4 hPa 0,0 l/m 0,6 km/h (0 Bft) SW 225 0 min 9,2 C 10,7 C 2,1 km/h (1 Bft)
17.08.2021 01:45 11,0 C 19,1 C 11,5 C 10,9 C 10,7 C 0,0 C 88 % 93 % 1013,4 hPa 0,0 l/m 0,6 km/h (0 Bft) S-SW 202 0 min 9,1 C 10,7 C 1,6 km/h (1 Bft)
17.08.2021 01:50 10,9 C 19,1 C 11,5 C 10,8 C 10,7 C 0,0 C 88 % 93 % 1013,4 hPa 0,0 l/m 0,8 km/h (0 Bft) SW 225 0 min 9,0 C 10,7 C 2,1 km/h (1 Bft)
17.08.2021 01:55 10,9 C 18,9 C 11,5 C 10,8 C 10,7 C 0,0 C 88 % 93 % 1013,4 hPa 0,0 l/m 0,8 km/h (0 Bft) SW 225 0 min 9,0 C 10,7 C 2,6 km/h (1 Bft)
17.08.2021 02:00 10,9 C 18,9 C 11,4 C 10,9 C 10,8 C 0,0 C 88 % 93 % 1013,2 hPa 0,0 l/m 1,1 km/h (1 Bft) S-SW 202 0 min 9,0 C 10,8 C 0,0 km/h (0 Bft)
17.08.2021 02:05 10,9 C 18,9 C 11,4 C 10,9 C 10,8 C 0,0 C 88 % 93 % 1013,2 hPa 0,0 l/m 1,4 km/h (1 Bft) S-SW 202 0 min 9,0 C 10,8 C 2,7 km/h (1 Bft)
17.08.2021 02:10 10,9 C 18,8 C 11,4 C 10,9 C 10,8 C 0,0 C 88 % 93 % 1013,2 hPa 0,0 l/m 1,6 km/h (1 Bft) S-SO 157 0 min 9,0 C 10,8 C 3,9 km/h (1 Bft)
17.08.2021 02:15 10,9 C 18,8 C 11,3 C 10,9 C 10,8 C 0,0 C 88 % 93 % 1013,2 hPa 0,0 l/m 1,8 km/h (1 Bft) W-SW 247 0 min 9,0 C 10,8 C 2,3 km/h (1 Bft)
17.08.2021 02:20 10,9 C 18,7 C 11,2 C 10,8 C 10,7 C 0,0 C 88 % 93 % 1013,4 hPa 0,0 l/m 1,8 km/h (1 Bft) SW 225 0 min 9,0 C 10,7 C 2,6 km/h (1 Bft)
17.08.2021 02:25 10,9 C 18,7 C 11,2 C 10,8 C 10,7 C 0,0 C 88 % 93 % 1013,4 hPa 0,0 l/m 1,9 km/h (1 Bft) SW 225 0 min 9,0 C 10,7 C 3,4 km/h (1 Bft)
17.08.2021 02:30 10,9 C 18,7 C 11,2 C 10,8 C 10,7 C 0,0 C 88 % 93 % 1013,4 hPa 0,0 l/m 1,9 km/h (1 Bft) NW 315 0 min 9,0 C 10,7 C 4,2 km/h (1 Bft)
17.08.2021 02:35 11,0 C 18,7 C 11,1 C 10,9 C 10,7 C 0,0 C 88 % 93 % 1013,4 hPa 0,0 l/m 2,1 km/h (1 Bft) SW 225 0 min 9,1 C 10,7 C 3,2 km/h (1 Bft)
17.08.2021 02:40 11,1 C 18,6 C 11,1 C 11,0 C 10,8 C 0,0 C 88 % 94 % 1013,4 hPa 0,0 l/m 2,3 km/h (1 Bft) W-SW 247 0 min 9,2 C 10,8 C 3,9 km/h (1 Bft)
17.08.2021 02:45 11,1 C 18,6 C 11,1 C 11,0 C 10,8 C 0,0 C 88 % 94 % 1013,4 hPa 0,0 l/m 2,1 km/h (1 Bft) SW 225 0 min 9,2 C 10,8 C 1,9 km/h (1 Bft)
17.08.2021 02:50 11,1 C 18,6 C 11,1 C 11,0 C 10,8 C 0,0 C 88 % 94 % 1013,4 hPa 0,0 l/m 1,6 km/h (1 Bft) SW 225 0 min 9,2 C 10,8 C 2,1 km/h (1 Bft)
17.08.2021 02:55 11,1 C 18,6 C 11,1 C 11,0 C 10,9 C 0,0 C 87 % 94 % 1013,4 hPa 0,0 l/m 1,0 km/h (0 Bft) SW 225 0 min 9,0 C 10,9 C 2,4 km/h (1 Bft)
17.08.2021 03:00 11,0 C 18,6 C 11,1 C 11,0 C 10,9 C 0,0 C 88 % 94 % 1013,6 hPa 0,0 l/m 0,8 km/h (0 Bft) O-NO 67 0 min 9,1 C 10,9 C 0,0 km/h (0 Bft)
17.08.2021 03:05 11,1 C 18,6 C 11,1 C 11,0 C 10,8 C 0,0 C 87 % 94 % 1013,6 hPa 0,0 l/m 1,0 km/h (0 Bft) W-SW 247 0 min 9,0 C 10,8 C 2,3 km/h (1 Bft)
17.08.2021 03:10 11,1 C 18,6 C 11,1 C 11,0 C 10,8 C 0,0 C 87 % 94 % 1013,6 hPa 0,0 l/m 1,0 km/h (0 Bft) SW 225 0 min 9,0 C 10,8 C 1,6 km/h (1 Bft)
17.08.2021 03:15 11,1 C 18,6 C 11,1 C 11,0 C 10,8 C 0,0 C 87 % 94 % 1013,6 hPa 0,0 l/m 1,1 km/h (1 Bft) SW 225 0 min 9,0 C 10,8 C 3,1 km/h (1 Bft)
17.08.2021 03:20 11,1 C 18,6 C 11,0 C 11,0 C 10,7 C 0,0 C 87 % 94 % 1013,2 hPa 0,0 l/m 0,8 km/h (0 Bft) SO 135 0 min 9,0 C 10,7 C 1,8 km/h (1 Bft)
17.08.2021 03:25 11,1 C 18,6 C 11,0 C 11,0 C 10,7 C 0,0 C 87 % 94 % 1013,2 hPa 0,0 l/m 1,1 km/h (1 Bft) O-SO 112 0 min 9,0 C 10,7 C 1,6 km/h (1 Bft)
17.08.2021 03:30 11,1 C 18,5 C 11,1 C 11,0 C 10,7 C 0,0 C 87 % 94 % 1013,2 hPa 0,0 l/m 1,3 km/h (1 Bft) SW 225 0 min 9,0 C 10,7 C 0,0 km/h (0 Bft)
17.08.2021 03:35 11,1 C 18,5 C 11,1 C 11,0 C 10,8 C 0,0 C 87 % 94 % 1013,2 hPa 0,0 l/m 1,1 km/h (1 Bft) S-SW 202 0 min 9,0 C 10,8 C 0,0 km/h (0 Bft)
17.08.2021 03:40 11,1 C 18,5 C 11,1 C 11,1 C 11,0 C 0,0 C 87 % 94 % 1013,7 hPa 0,0 l/m 1,1 km/h (1 Bft) SW 225 0 min 9,0 C 11,0 C 2,3 km/h (1 Bft)
17.08.2021 03:45 11,1 C 18,4 C 11,1 C 11,1 C 11,1 C 0,0 C 87 % 94 % 1013,7 hPa 0,0 l/m 1,6 km/h (1 Bft) S 180 0 min 9,0 C 11,1 C 2,7 km/h (1 Bft)
17.08.2021 03:50 11,1 C 18,4 C 11,1 C 11,3 C 11,3 C 0,2 C 87 % 94 % 1013,7 hPa 0,0 l/m 1,8 km/h (1 Bft) SW 225 0 min 9,0 C 11,3 C 3,9 km/h (1 Bft)
17.08.2021 03:55 11,1 C 18,4 C 11,1 C 11,4 C 11,4 C 0,3 C 87 % 94 % 1013,7 hPa 0,0 l/m 1,9 km/h (1 Bft) SW 225 0 min 9,0 C 11,4 C 6,8 km/h (2 Bft)
17.08.2021 04:00 11,2 C 18,4 C 11,2 C 11,5 C 11,5 C 0,3 C 87 % 94 % 1014,0 hPa 0,0 l/m 2,1 km/h (1 Bft) SW 225 0 min 9,1 C 11,5 C 3,1 km/h (1 Bft)
17.08.2021 04:05 11,3 C 18,4 C 11,2 C 11,6 C 11,6 C 0,3 C 87 % 94 % 1014,0 hPa 0,0 l/m 2,4 km/h (1 Bft) W-SW 247 0 min 9,2 C 11,6 C 2,1 km/h (1 Bft)
17.08.2021 04:10 11,2 C 18,4 C 11,2 C 11,7 C 11,7 C 0,5 C 87 % 93 % 1014,0 hPa 0,0 l/m 2,3 km/h (1 Bft) S-SW 202 0 min 9,1 C 11,7 C 2,4 km/h (1 Bft)
17.08.2021 04:15 11,2 C 18,3 C 11,3 C 11,7 C 11,7 C 0,5 C 87 % 93 % 1014,0 hPa 0,0 l/m 1,8 km/h (1 Bft) S-SO 157 0 min 9,1 C 11,7 C 3,1 km/h (1 Bft)
17.08.2021 04:20 11,3 C 18,3 C 11,3 C 11,7 C 11,7 C 0,4 C 87 % 94 % 1014,0 hPa 0,0 l/m 1,9 km/h (1 Bft) W-SW 247 0 min 9,2 C 11,7 C 3,9 km/h (1 Bft)
17.08.2021 04:25 11,3 C 18,3 C 11,2 C 11,6 C 11,6 C 0,3 C 87 % 93 % 1014,0 hPa 0,0 l/m 2,3 km/h (1 Bft) S-SO 157 0 min 9,2 C 11,6 C 6,8 km/h (2 Bft)
17.08.2021 04:30 11,3 C 18,3 C 11,1 C 11,3 C 11,3 C 0,0 C 87 % 93 % 1014,0 hPa 0,0 l/m 1,8 km/h (1 Bft) S-SO 157 0 min 9,2 C 11,3 C 1,6 km/h (1 Bft)
17.08.2021 04:35 11,3 C 18,2 C 11,1 C 11,2 C 11,0 C 0,0 C 86 % 93 % 1014,0 hPa 0,0 l/m 1,8 km/h (1 Bft) S 180 0 min 9,0 C 11,0 C 3,1 km/h (1 Bft)
17.08.2021 04:40 11,2 C 18,2 C 11,1 C 11,1 C 11,0 C 0,0 C 86 % 93 % 1013,6 hPa 0,0 l/m 1,8 km/h (1 Bft) S-SW 202 0 min 8,9 C 11,0 C 1,9 km/h (1 Bft)
17.08.2021 04:45 11,3 C 18,2 C 11,1 C 11,2 C 11,0 C 0,0 C 86 % 93 % 1013,6 hPa 0,0 l/m 1,3 km/h (1 Bft) S 180 0 min 9,0 C 11,0 C 2,3 km/h (1 Bft)
17.08.2021 04:50 11,3 C 18,2 C 11,0 C 11,2 C 10,9 C 0,0 C 86 % 93 % 1013,6 hPa 0,0 l/m 1,1 km/h (1 Bft) S-SO 157 0 min 9,0 C 10,9 C 4,2 km/h (1 Bft)
17.08.2021 04:55 11,2 C 18,2 C 11,0 C 11,1 C 10,8 C 0,0 C 86 % 93 % 1013,6 hPa 0,0 l/m 1,3 km/h (1 Bft) SW 225 0 min 8,9 C 10,8 C 2,9 km/h (1 Bft)
17.08.2021 05:00 11,1 C 18,1 C 10,9 C 11,0 C 10,7 C 0,0 C 86 % 93 % 1013,8 hPa 0,0 l/m 1,6 km/h (1 Bft) S 180 0 min 8,8 C 10,7 C 8,0 km/h (2 Bft)
17.08.2021 05:05 11,1 C 18,1 C 10,9 C 11,0 C 10,7 C 0,0 C 86 % 93 % 1013,8 hPa 0,0 l/m 1,9 km/h (1 Bft) SW 225 0 min 8,8 C 10,7 C 3,5 km/h (1 Bft)
17.08.2021 05:10 11,2 C 18,1 C 10,9 C 11,0 C 10,7 C 0,0 C 86 % 94 % 1013,8 hPa 0,0 l/m 2,1 km/h (1 Bft) SW 225 0 min 8,9 C 10,7 C 2,1 km/h (1 Bft)
17.08.2021 05:15 11,2 C 18,1 C 10,9 C 11,1 C 10,9 C 0,0 C 86 % 94 % 1013,8 hPa 0,0 l/m 2,3 km/h (1 Bft) W-SW 247 0 min 8,9 C 10,9 C 2,4 km/h (1 Bft)
17.08.2021 05:20 11,2 C 18,0 C 11,0 C 11,1 C 11,0 C 0,0 C 86 % 93 % 1014,0 hPa 0,0 l/m 1,9 km/h (1 Bft) W-SW 247 0 min 8,9 C 11,0 C 1,6 km/h (1 Bft)
17.08.2021 05:25 11,2 C 18,0 C 11,1 C 11,2 C 11,2 C 0,0 C 86 % 94 % 1014,0 hPa 0,0 l/m 1,8 km/h (1 Bft) S 180 0 min 8,9 C 11,2 C 4,2 km/h (1 Bft)
17.08.2021 05:30 11,2 C 18,0 C 11,1 C 11,4 C 11,4 C 0,2 C 86 % 93 % 1014,0 hPa 0,0 l/m 1,8 km/h (1 Bft) W-SW 247 0 min 8,9 C 11,4 C 2,3 km/h (1 Bft)
17.08.2021 05:35 11,2 C 18,0 C 11,1 C 11,4 C 11,4 C 0,2 C 86 % 93 % 1014,0 hPa 0,0 l/m 1,9 km/h (1 Bft) SW 225 0 min 8,9 C 11,4 C 2,4 km/h (1 Bft)
17.08.2021 05:40 11,3 C 18,0 C 11,1 C 11,4 C 11,4 C 0,1 C 86 % 93 % 1013,9 hPa 0,0 l/m 2,3 km/h (1 Bft) S 180 0 min 9,0 C 11,4 C 3,7 km/h (1 Bft)
17.08.2021 05:45 11,3 C 18,0 C 11,1 C 11,3 C 11,2 C 0,0 C 86 % 93 % 1013,9 hPa 0,0 l/m 2,4 km/h (1 Bft) W-SW 247 0 min 9,0 C 11,2 C 3,4 km/h (1 Bft)
17.08.2021 05:50 11,3 C 18,0 C 11,1 C 11,3 C 11,2 C 0,0 C 86 % 94 % 1013,9 hPa 0,0 l/m 1,6 km/h (1 Bft) SW 225 0 min 9,0 C 11,2 C 1,9 km/h (1 Bft)
17.08.2021 05:55 11,3 C 17,9 C 11,1 C 11,3 C 11,2 C 0,0 C 86 % 93 % 1013,9 hPa 0,0 l/m 1,3 km/h (1 Bft) W-SW 247 0 min 9,0 C 11,2 C 0,0 km/h (0 Bft)
17.08.2021 06:00 11,3 C 17,9 C 11,2 C 11,4 C 11,4 C 0,1 C 86 % 93 % 1014,1 hPa 0,0 l/m 1,6 km/h (1 Bft) S 180 0 min 9,0 C 11,4 C 2,6 km/h (1 Bft)
17.08.2021 06:05 11,3 C 17,9 C 11,2 C 11,4 C 11,4 C 0,1 C 85 % 93 % 1014,1 hPa 0,0 l/m 1,9 km/h (1 Bft) SW 225 0 min 8,9 C 11,4 C 3,4 km/h (1 Bft)
17.08.2021 06:10 11,4 C 17,9 C 11,1 C 11,4 C 11,4 C 0,0 C 85 % 93 % 1014,1 hPa 0,0 l/m 1,6 km/h (1 Bft) SO 135 0 min 9,0 C 11,4 C 2,6 km/h (1 Bft)
17.08.2021 06:15 11,3 C 17,9 C 11,2 C 11,4 C 11,4 C 0,1 C 85 % 93 % 1014,1 hPa 0,0 l/m 1,4 km/h (1 Bft) SW 225 0 min 8,9 C 11,4 C 0,0 km/h (0 Bft)
17.08.2021 06:20 11,4 C 17,8 C 11,2 C 11,4 C 11,4 C 0,0 C 85 % 93 % 1014,3 hPa 0,0 l/m 1,4 km/h (1 Bft) W-SW 247 0 min 9,0 C 11,4 C 0,0 km/h (0 Bft)
17.08.2021 06:25 11,4 C 17,8 C 11,2 C 11,4 C 11,4 C 0,0 C 85 % 93 % 1014,3 hPa 0,0 l/m 1,6 km/h (1 Bft) S 180 0 min 9,0 C 11,4 C 2,4 km/h (1 Bft)
17.08.2021 06:30 11,5 C 17,8 C 11,3 C 11,7 C 11,7 C 0,2 C 85 % 93 % 1014,3 hPa 0,0 l/m 1,4 km/h (1 Bft) SW 225 0 min 9,1 C 11,7 C 2,7 km/h (1 Bft)
17.08.2021 06:35 11,4 C 17,8 C 11,4 C 11,7 C 11,7 C 0,3 C 85 % 93 % 1014,3 hPa 0,0 l/m 1,6 km/h (1 Bft) SW 225 0 min 9,0 C 11,7 C 3,7 km/h (1 Bft)
17.08.2021 06:40 11,5 C 17,8 C 11,4 C 11,8 C 11,8 C 0,3 C 85 % 93 % 1014,2 hPa 0,0 l/m 1,9 km/h (1 Bft) W-SW 247 0 min 9,1 C 11,8 C 4,2 km/h (1 Bft)
17.08.2021 06:45 11,6 C 17,8 C 11,5 C 11,9 C 11,9 C 0,3 C 85 % 93 % 1014,2 hPa 0,0 l/m 1,9 km/h (1 Bft) S 180 0 min 9,2 C 11,9 C 4,0 km/h (1 Bft)
17.08.2021 06:50 11,7 C 17,8 C 11,5 C 12,0 C 12,0 C 0,3 C 85 % 93 % 1014,2 hPa 0,0 l/m 2,3 km/h (1 Bft) SW 225 0 min 9,3 C 12,0 C 1,9 km/h (1 Bft)
17.08.2021 06:55 11,6 C 17,8 C 11,5 C 12,1 C 12,1 C 0,5 C 85 % 93 % 1014,2 hPa 0,0 l/m 2,4 km/h (1 Bft) W-SW 247 0 min 9,2 C 12,1 C 2,3 km/h (1 Bft)
17.08.2021 07:00 11,7 C 17,7 C 11,5 C 12,2 C 12,2 C 0,5 C 85 % 93 % 1014,8 hPa 0,0 l/m 2,3 km/h (1 Bft) NW 315 0 min 9,3 C 12,2 C 1,8 km/h (1 Bft)
17.08.2021 07:05 11,7 C 17,7 C 11,6 C 12,2 C 12,2 C 0,5 C 85 % 93 % 1014,8 hPa 0,0 l/m 2,1 km/h (1 Bft) SW 225 0 min 9,3 C 12,2 C 2,7 km/h (1 Bft)
17.08.2021 07:10 11,7 C 17,7 C 11,6 C 12,3 C 12,3 C 0,6 C 85 % 93 % 1014,8 hPa 0,0 l/m 1,9 km/h (1 Bft) SW 225 0 min 9,3 C 12,3 C 3,5 km/h (1 Bft)
17.08.2021 07:15 11,9 C 17,7 C 11,7 C 12,4 C 12,4 C 0,5 C 85 % 93 % 1014,8 hPa 0,0 l/m 2,4 km/h (1 Bft) S 180 0 min 9,5 C 12,4 C 4,3 km/h (1 Bft)
17.08.2021 07:20 11,8 C 17,7 C 11,8 C 12,5 C 12,5 C 0,7 C 85 % 93 % 1014,5 hPa 0,0 l/m 2,4 km/h (1 Bft) W-SW 247 0 min 9,4 C 12,5 C 3,4 km/h (1 Bft)
17.08.2021 07:25 11,9 C 17,7 C 11,9 C 12,6 C 12,6 C 0,7 C 85 % 93 % 1014,5 hPa 0,0 l/m 1,9 km/h (1 Bft) S-SW 202 0 min 9,5 C 12,6 C 3,1 km/h (1 Bft)
17.08.2021 07:30 12,0 C 17,7 C 11,9 C 12,8 C 12,8 C 0,8 C 85 % 93 % 1014,5 hPa 0,0 l/m 2,4 km/h (1 Bft) S-SW 202 0 min 9,6 C 12,8 C 5,8 km/h (2 Bft)
17.08.2021 07:35 12,1 C 17,7 C 12,0 C 12,8 C 12,8 C 0,7 C 85 % 93 % 1014,5 hPa 0,0 l/m 2,4 km/h (1 Bft) W-NW 292 0 min 9,7 C 12,8 C 1,9 km/h (1 Bft)
17.08.2021 07:40 12,0 C 17,6 C 12,1 C 13,0 C 13,0 C 1,0 C 85 % 93 % 1014,9 hPa 0,0 l/m 2,1 km/h (1 Bft) W-SW 247 0 min 9,6 C 13,0 C 2,7 km/h (1 Bft)
17.08.2021 07:45 12,1 C 17,6 C 12,2 C 13,4 C 13,4 C 1,3 C 85 % 93 % 1014,9 hPa 0,0 l/m 2,4 km/h (1 Bft) W-SW 247 0 min 9,7 C 13,4 C 4,7 km/h (1 Bft)
17.08.2021 07:50 12,2 C 17,6 C 12,3 C 13,6 C 13,6 C 1,4 C 85 % 93 % 1014,9 hPa 0,0 l/m 2,9 km/h (1 Bft) W 270 0 min 9,8 C 13,6 C 5,0 km/h (1 Bft)
17.08.2021 07:55 12,3 C 17,6 C 12,4 C 13,8 C 13,8 C 1,5 C 85 % 93 % 1014,9 hPa 0,0 l/m 3,1 km/h (1 Bft) S 180 0 min 9,9 C 13,8 C 2,7 km/h (1 Bft)
17.08.2021 08:00 12,5 C 17,5 C 12,5 C 15,2 C 15,2 C 2,7 C 85 % 93 % 1015,1 hPa 0,0 l/m 2,7 km/h (1 Bft) W-SW 247 0 min 10,0 C 15,2 C 2,1 km/h (1 Bft)
17.08.2021 08:05 12,7 C 17,5 C 12,7 C 15,5 C 15,5 C 2,8 C 85 % 93 % 1015,1 hPa 0,0 l/m 2,6 km/h (1 Bft) W 270 0 min 10,2 C 15,5 C 3,1 km/h (1 Bft)
17.08.2021 08:10 12,8 C 17,5 C 12,8 C 16,6 C 16,6 C 3,8 C 85 % 92 % 1015,1 hPa 0,0 l/m 2,7 km/h (1 Bft) SW 225 5 min 10,3 C 16,6 C 10,5 km/h (2 Bft)
17.08.2021 08:15 12,9 C 17,5 C 12,9 C 16,1 C 16,1 C 3,2 C 85 % 92 % 1015,1 hPa 0,0 l/m 2,9 km/h (1 Bft) SW 225 0 min 10,4 C 16,1 C 2,3 km/h (1 Bft)
17.08.2021 08:20 12,9 C 17,5 C 12,9 C 15,3 C 15,3 C 2,4 C 84 % 92 % 1015,4 hPa 0,0 l/m 3,1 km/h (1 Bft) S-SW 202 0 min 10,3 C 15,3 C 0,0 km/h (0 Bft)
17.08.2021 08:25 12,9 C 17,5 C 12,8 C 15,0 C 15,0 C 2,1 C 84 % 92 % 1015,4 hPa 0,0 l/m 2,9 km/h (1 Bft) SW 225 0 min 10,3 C 15,0 C 2,4 km/h (1 Bft)
17.08.2021 08:30 12,8 C 17,4 C 12,8 C 14,6 C 14,6 C 1,8 C 84 % 92 % 1015,4 hPa 0,0 l/m 2,9 km/h (1 Bft) S 180 0 min 10,2 C 14,6 C 4,2 km/h (1 Bft)
17.08.2021 08:35 12,9 C 17,4 C 12,9 C 14,4 C 14,4 C 1,5 C 84 % 93 % 1015,4 hPa 0,0 l/m 2,7 km/h (1 Bft) SW 225 0 min 10,3 C 14,4 C 4,0 km/h (1 Bft)
17.08.2021 08:40 12,8 C 17,4 C 12,9 C 14,5 C 14,5 C 1,7 C 84 % 92 % 1015,2 hPa 0,0 l/m 2,7 km/h (1 Bft) S-SW 202 0 min 10,2 C 14,5 C 5,8 km/h (2 Bft)
17.08.2021 08:45 12,9 C 17,4 C 12,9 C 14,5 C 14,5 C 1,6 C 84 % 92 % 1015,2 hPa 0,0 l/m 3,1 km/h (1 Bft) S 180 0 min 10,3 C 14,5 C 8,4 km/h (2 Bft)
17.08.2021 08:50 13,0 C 17,4 C 12,9 C 15,4 C 15,4 C 2,4 C 84 % 92 % 1015,2 hPa 0,0 l/m 3,1 km/h (1 Bft) SW 225 0 min 10,4 C 15,4 C 17,7 km/h (3 Bft)
17.08.2021 08:55 13,1 C 17,4 C 13,1 C 15,6 C 15,6 C 2,5 C 84 % 92 % 1015,2 hPa 0,0 l/m 3,2 km/h (1 Bft) SW 225 0 min 10,5 C 15,6 C 3,1 km/h (1 Bft)
17.08.2021 09:00 13,4 C 17,4 C 13,4 C 17,8 C 17,8 C 4,4 C 84 % 92 % 1015,6 hPa 0,0 l/m 2,9 km/h (1 Bft) W-SW 247 5 min 10,8 C 17,8 C 5,1 km/h (1 Bft)
17.08.2021 09:05 13,5 C 17,4 C 13,5 C 17,4 C 17,4 C 3,9 C 84 % 92 % 1015,6 hPa 0,0 l/m 2,6 km/h (1 Bft) SO 135 5 min 10,8 C 17,4 C 5,8 km/h (2 Bft)
17.08.2021 09:10 13,6 C 17,4 C 13,6 C 17,3 C 17,3 C 3,7 C 83 % 92 % 1015,6 hPa 0,0 l/m 3,1 km/h (1 Bft) SW 225 5 min 10,8 C 17,3 C 6,3 km/h (2 Bft)
17.08.2021 09:15 13,7 C 17,4 C 13,7 C 17,0 C 17,0 C 3,3 C 83 % 92 % 1015,6 hPa 0,0 l/m 2,9 km/h (1 Bft) SO 135 5 min 10,9 C 17,0 C 2,7 km/h (1 Bft)
17.08.2021 09:20 13,7 C 17,3 C 13,9 C 16,8 C 16,8 C 3,1 C 83 % 92 % 1015,6 hPa 0,0 l/m 2,9 km/h (1 Bft) SW 225 0 min 10,9 C 16,8 C 3,4 km/h (1 Bft)
17.08.2021 09:25 13,7 C 17,3 C 13,9 C 16,7 C 16,7 C 3,0 C 82 % 92 % 1015,6 hPa 0,0 l/m 2,9 km/h (1 Bft) S-SW 202 0 min 10,7 C 16,7 C 5,8 km/h (2 Bft)
17.08.2021 09:30 13,9 C 17,3 C 14,0 C 16,6 C 16,6 C 2,7 C 83 % 91 % 1015,6 hPa 0,0 l/m 3,1 km/h (1 Bft) S 180 0 min 11,1 C 16,6 C 3,2 km/h (1 Bft)
17.08.2021 09:35 13,9 C 17,3 C 13,9 C 16,6 C 16,6 C 2,7 C 82 % 91 % 1015,6 hPa 0,0 l/m 3,2 km/h (1 Bft) SW 225 0 min 10,9 C 16,6 C 6,6 km/h (2 Bft)
17.08.2021 09:40 13,9 C 17,3 C 14,0 C 16,3 C 16,3 C 2,4 C 81 % 90 % 1015,8 hPa 0,0 l/m 3,4 km/h (1 Bft) W-SW 247 0 min 10,7 C 16,3 C 5,5 km/h (1 Bft)
17.08.2021 09:45 13,9 C 17,3 C 14,0 C 16,2 C 16,2 C 2,3 C 81 % 90 % 1015,8 hPa 0,0 l/m 3,7 km/h (1 Bft) SW 225 0 min 10,7 C 16,2 C 4,2 km/h (1 Bft)
17.08.2021 09:50 13,9 C 17,3 C 14,0 C 16,1 C 16,1 C 2,2 C 81 % 89 % 1015,8 hPa 0,0 l/m 3,9 km/h (1 Bft) W-SW 247 0 min 10,7 C 16,1 C 5,1 km/h (1 Bft)
17.08.2021 09:55 13,9 C 17,3 C 14,0 C 16,1 C 16,1 C 2,2 C 80 % 89 % 1015,8 hPa 0,0 l/m 3,7 km/h (1 Bft) N-NO 22 0 min 10,5 C 16,1 C 3,7 km/h (1 Bft)
17.08.2021 10:00 14,0 C 17,2 C 14,0 C 15,9 C 15,9 C 1,9 C 79 % 89 % 1016,1 hPa 0,0 l/m 4,2 km/h (1 Bft) W-SW 247 0 min 10,4 C 15,9 C 6,4 km/h (2 Bft)
17.08.2021 10:05 14,0 C 17,3 C 13,9 C 15,7 C 15,7 C 1,7 C 79 % 89 % 1016,1 hPa 0,0 l/m 3,9 km/h (1 Bft) O-SO 112 0 min 10,4 C 15,7 C 4,5 km/h (1 Bft)
17.08.2021 10:10 14,0 C 17,2 C 13,9 C 15,5 C 15,5 C 1,5 C 79 % 88 % 1016,1 hPa 0,0 l/m 3,5 km/h (1 Bft) S-SW 202 0 min 10,4 C 15,5 C 5,0 km/h (1 Bft)
17.08.2021 10:15 14,0 C 17,2 C 13,9 C 15,4 C 15,4 C 1,4 C 79 % 88 % 1016,1 hPa 0,0 l/m 3,7 km/h (1 Bft) W-SW 247 0 min 10,4 C 15,4 C 9,2 km/h (2 Bft)
17.08.2021 10:20 14,0 C 17,2 C 13,9 C 15,2 C 15,2 C 1,2 C 79 % 87 % 1015,9 hPa 0,0 l/m 4,3 km/h (1 Bft) S 180 0 min 10,4 C 15,2 C 6,3 km/h (2 Bft)
17.08.2021 10:25 14,0 C 17,2 C 13,9 C 15,2 C 15,2 C 1,2 C 78 % 87 % 1015,9 hPa 0,0 l/m 4,5 km/h (1 Bft) W-SW 247 0 min 10,2 C 15,2 C 5,8 km/h (2 Bft)
17.08.2021 10:30 14,0 C 17,2 C 13,9 C 15,2 C 15,2 C 1,2 C 78 % 87 % 1015,9 hPa 0,0 l/m 3,9 km/h (1 Bft) S-SW 202 0 min 10,2 C 15,2 C 8,0 km/h (2 Bft)
17.08.2021 10:35 14,0 C 17,2 C 13,7 C 15,0 C 15,0 C 1,0 C 78 % 87 % 1015,9 hPa 0,0 l/m 3,7 km/h (1 Bft) W-SW 247 0 min 10,2 C 15,0 C 5,6 km/h (1 Bft)
17.08.2021 10:40 14,1 C 17,2 C 13,7 C 14,9 C 14,9 C 0,8 C 77 % 86 % 1016,3 hPa 0,0 l/m 4,3 km/h (1 Bft) N-NW 337 0 min 10,1 C 14,9 C 4,8 km/h (1 Bft)
17.08.2021 10:45 14,0 C 17,2 C 13,7 C 14,9 C 14,9 C 0,9 C 77 % 86 % 1016,3 hPa 0,0 l/m 4,0 km/h (1 Bft) S 180 0 min 10,0 C 14,9 C 5,1 km/h (1 Bft)
17.08.2021 10:50 14,1 C 17,2 C 13,8 C 15,0 C 15,0 C 0,9 C 77 % 86 % 1016,3 hPa 0,0 l/m 3,7 km/h (1 Bft) SW 225 0 min 10,1 C 15,0 C 7,1 km/h (2 Bft)
17.08.2021 10:55 14,2 C 17,2 C 14,0 C 15,2 C 15,2 C 1,0 C 77 % 86 % 1016,3 hPa 0,0 l/m 3,4 km/h (1 Bft) W-SW 247 0 min 10,2 C 15,2 C 4,8 km/h (1 Bft)
17.08.2021 11:00 14,3 C 17,2 C 14,3 C 16,0 C 16,0 C 1,7 C 77 % 86 % 1016,2 hPa 0,0 l/m 3,2 km/h (1 Bft) SW 225 0 min 10,3 C 16,0 C 2,9 km/h (1 Bft)
17.08.2021 11:05 14,5 C 17,2 C 14,6 C 16,7 C 16,7 C 2,2 C 77 % 85 % 1016,2 hPa 0,0 l/m 2,6 km/h (1 Bft) SO 135 0 min 10,5 C 16,7 C 3,2 km/h (1 Bft)
17.08.2021 11:10 14,8 C 17,2 C 14,8 C 17,5 C 17,5 C 2,7 C 75 % 83 % 1016,2 hPa 0,0 l/m 3,5 km/h (1 Bft) SW 225 0 min 10,4 C 17,5 C 4,2 km/h (1 Bft)
17.08.2021 11:15 14,9 C 17,2 C 14,9 C 17,9 C 17,9 C 3,0 C 74 % 83 % 1016,2 hPa 0,0 l/m 4,2 km/h (1 Bft) S-SW 202 0 min 10,3 C 17,9 C 2,9 km/h (1 Bft)
17.08.2021 11:20 15,0 C 17,1 C 15,0 C 17,8 C 17,8 C 2,8 C 73 % 80 % 1015,9 hPa 0,0 l/m 4,5 km/h (1 Bft) W-SW 247 0 min 10,2 C 17,8 C 6,4 km/h (2 Bft)
17.08.2021 11:25 15,1 C 17,1 C 14,9 C 17,5 C 17,5 C 2,4 C 73 % 80 % 1015,9 hPa 0,0 l/m 4,2 km/h (1 Bft) W 270 0 min 10,3 C 17,5 C 4,3 km/h (1 Bft)
17.08.2021 11:30 15,1 C 17,1 C 15,0 C 17,5 C 17,5 C 2,4 C 72 % 80 % 1015,9 hPa 0,0 l/m 3,5 km/h (1 Bft) S-SO 157 0 min 10,1 C 17,5 C 3,4 km/h (1 Bft)
17.08.2021 11:35 15,2 C 17,1 C 15,1 C 17,7 C 17,7 C 2,5 C 72 % 79 % 1015,9 hPa 0,0 l/m 3,9 km/h (1 Bft) SW 225 0 min 10,2 C 17,7 C 9,3 km/h (2 Bft)
17.08.2021 11:40 15,3 C 17,0 C 15,4 C 18,1 C 18,1 C 2,8 C 71 % 78 % 1016,2 hPa 0,0 l/m 4,2 km/h (1 Bft) SW 225 0 min 10,1 C 18,1 C 12,7 km/h (3 Bft)
17.08.2021 11:45 15,5 C 17,0 C 15,4 C 18,2 C 18,2 C 2,7 C 70 % 76 % 1016,2 hPa 0,0 l/m 5,0 km/h (1 Bft) S-SW 202 0 min 10,1 C 18,2 C 6,4 km/h (2 Bft)
17.08.2021 11:50 15,5 C 17,0 C 15,5 C 18,2 C 18,2 C 2,7 C 69 % 75 % 1016,2 hPa 0,0 l/m 5,5 km/h (1 Bft) SW 225 0 min 9,8 C 18,2 C 7,1 km/h (2 Bft)
17.08.2021 11:55 15,7 C 17,0 C 15,7 C 18,3 C 18,3 C 2,6 C 68 % 75 % 1016,2 hPa 0,0 l/m 4,8 km/h (1 Bft) S 180 0 min 9,8 C 18,3 C 7,4 km/h (2 Bft)
17.08.2021 12:00 15,9 C 17,0 C 15,9 C 18,8 C 18,8 C 2,9 C 68 % 75 % 1016,0 hPa 0,0 l/m 4,2 km/h (1 Bft) SW 225 0 min 10,0 C 18,8 C 8,0 km/h (2 Bft)
17.08.2021 12:05 16,0 C 17,0 C 15,9 C 18,9 C 18,9 C 2,9 C 68 % 74 % 1016,0 hPa 0,0 l/m 4,3 km/h (1 Bft) S-SW 202 0 min 10,1 C 18,9 C 5,8 km/h (2 Bft)
17.08.2021 12:10 16,0 C 17,0 C 15,7 C 18,5 C 18,5 C 2,5 C 66 % 73 % 1016,0 hPa 0,0 l/m 4,5 km/h (1 Bft) SW 225 0 min 9,7 C 18,5 C 8,2 km/h (2 Bft)
17.08.2021 12:15 15,9 C 17,0 C 15,6 C 18,1 C 18,1 C 2,2 C 66 % 73 % 1016,0 hPa 0,0 l/m 4,2 km/h (1 Bft) S 180 0 min 9,6 C 18,1 C 4,8 km/h (1 Bft)
17.08.2021 12:20 15,9 C 17,0 C 15,5 C 17,8 C 17,8 C 1,9 C 65 % 72 % 1016,1 hPa 0,0 l/m 4,5 km/h (1 Bft) S 180 0 min 9,3 C 17,8 C 4,2 km/h (1 Bft)
17.08.2021 12:25 15,9 C 17,0 C 15,6 C 17,8 C 17,8 C 1,9 C 65 % 73 % 1016,1 hPa 0,0 l/m 4,2 km/h (1 Bft) W-SW 247 0 min 9,3 C 17,8 C 2,6 km/h (1 Bft)
17.08.2021 12:30 16,1 C 17,0 C 15,9 C 18,3 C 18,3 C 2,2 C 65 % 72 % 1016,1 hPa 0,0 l/m 4,2 km/h (1 Bft) S 180 0 min 9,5 C 18,3 C 4,0 km/h (1 Bft)
17.08.2021 12:35 16,0 C 17,0 C 15,9 C 18,4 C 18,4 C 2,4 C 62 % 68 % 1016,1 hPa 0,0 l/m 5,0 km/h (1 Bft) SW 225 0 min 8,7 C 18,4 C 7,4 km/h (2 Bft)
17.08.2021 12:40 16,1 C 17,0 C 15,9 C 18,8 C 18,8 C 2,7 C 63 % 69 % 1015,8 hPa 0,0 l/m 5,5 km/h (1 Bft) S 180 0 min 9,1 C 18,8 C 5,1 km/h (1 Bft)
17.08.2021 12:45 16,1 C 16,9 C 15,9 C 18,7 C 18,7 C 2,6 C 62 % 68 % 1015,8 hPa 0,0 l/m 5,3 km/h (1 Bft) S-SW 202 0 min 8,8 C 18,7 C 6,1 km/h (2 Bft)
17.08.2021 12:50 16,3 C 16,9 C 16,1 C 19,0 C 19,0 C 2,7 C 62 % 68 % 1015,8 hPa 0,0 l/m 4,5 km/h (1 Bft) S 180 0 min 9,0 C 19,0 C 6,0 km/h (2 Bft)
17.08.2021 12:55 16,4 C 16,9 C 16,3 C 19,5 C 19,5 C 3,1 C 63 % 68 % 1015,8 hPa 0,0 l/m 4,5 km/h (1 Bft) W-SW 247 0 min 9,3 C 19,5 C 6,4 km/h (2 Bft)
17.08.2021 13:00 16,5 C 16,9 C 16,4 C 19,8 C 19,8 C 3,3 C 62 % 67 % 1015,9 hPa 0,0 l/m 5,0 km/h (1 Bft) W-SW 247 5 min 9,2 C 19,8 C 7,1 km/h (2 Bft)
17.08.2021 13:05 16,5 C 16,9 C 16,6 C 20,0 C 20,0 C 3,5 C 61 % 66 % 1015,9 hPa 0,0 l/m 5,1 km/h (1 Bft) S-SW 202 5 min 9,0 C 20,0 C 7,6 km/h (2 Bft)
17.08.2021 13:10 16,8 C 16,9 C 16,6 C 20,7 C 20,7 C 3,9 C 61 % 64 % 1015,9 hPa 0,0 l/m 4,7 km/h (1 Bft) SW 225 5 min 9,2 C 20,7 C 6,8 km/h (2 Bft)
17.08.2021 13:15 16,8 C 16,9 C 16,7 C 20,6 C 20,6 C 3,8 C 61 % 65 % 1015,9 hPa 0,0 l/m 4,5 km/h (1 Bft) SW 225 5 min 9,2 C 20,6 C 5,6 km/h (1 Bft)
17.08.2021 13:20 16,9 C 16,9 C 16,8 C 20,4 C 20,4 C 3,5 C 60 % 63 % 1016,0 hPa 0,0 l/m 4,5 km/h (1 Bft) W 270 5 min 9,1 C 20,4 C 7,1 km/h (2 Bft)
17.08.2021 13:25 16,9 C 16,9 C 16,7 C 20,3 C 20,3 C 3,4 C 61 % 64 % 1016,0 hPa 0,0 l/m 4,2 km/h (1 Bft) SW 225 5 min 9,3 C 20,3 C 6,0 km/h (2 Bft)
17.08.2021 13:30 16,9 C 16,9 C 17,6 C 21,0 C 21,0 C 4,1 C 61 % 63 % 1016,0 hPa 0,0 l/m 4,2 km/h (1 Bft) W-SW 247 5 min 9,3 C 21,0 C 6,8 km/h (2 Bft)
17.08.2021 13:35 17,2 C 16,9 C 17,9 C 21,7 C 21,7 C 4,5 C 60 % 62 % 1016,0 hPa 0,0 l/m 4,5 km/h (1 Bft) W-SW 247 5 min 9,4 C 21,7 C 3,5 km/h (1 Bft)
17.08.2021 13:40 17,4 C 16,9 C 17,6 C 21,9 C 21,9 C 4,5 C 59 % 60 % 1015,9 hPa 0,0 l/m 5,5 km/h (1 Bft) SW 225 5 min 9,3 C 21,9 C 5,5 km/h (1 Bft)
17.08.2021 13:45 17,5 C 16,9 C 17,6 C 21,6 C 21,6 C 4,1 C 59 % 61 % 1015,9 hPa 0,0 l/m 5,3 km/h (1 Bft) S-SW 202 5 min 9,4 C 21,6 C 5,0 km/h (1 Bft)
17.08.2021 13:50 17,3 C 16,9 C 17,5 C 21,3 C 21,3 C 4,0 C 59 % 61 % 1015,9 hPa 0,0 l/m 4,8 km/h (1 Bft) S 180 5 min 9,2 C 21,3 C 3,4 km/h (1 Bft)
17.08.2021 13:55 17,4 C 16,9 C 17,5 C 21,4 C 21,4 C 4,0 C 59 % 61 % 1015,9 hPa 0,0 l/m 4,5 km/h (1 Bft) N-NW 337 5 min 9,3 C 21,4 C 4,7 km/h (1 Bft)
17.08.2021 14:00 17,4 C 16,9 C 17,5 C 20,6 C 20,6 C 3,2 C 58 % 60 % 1016,1 hPa 0,0 l/m 4,5 km/h (1 Bft) S-SW 202 0 min 9,1 C 20,6 C 3,1 km/h (1 Bft)
17.08.2021 14:05 17,5 C 16,9 C 17,5 C 20,8 C 20,8 C 3,3 C 58 % 60 % 1016,1 hPa 0,0 l/m 5,3 km/h (1 Bft) W-NW 292 5 min 9,1 C 20,8 C 11,3 km/h (2 Bft)
17.08.2021 14:10 17,5 C 16,9 C 17,6 C 20,7 C 20,7 C 3,2 C 58 % 58 % 1016,1 hPa 0,0 l/m 5,6 km/h (1 Bft) S-SW 202 0 min 9,1 C 20,7 C 8,4 km/h (2 Bft)
17.08.2021 14:15 17,5 C 16,9 C 17,7 C 20,5 C 20,5 C 3,0 C 57 % 58 % 1016,1 hPa 0,0 l/m 5,6 km/h (1 Bft) S-SO 157 0 min 8,9 C 20,5 C 7,1 km/h (2 Bft)
17.08.2021 14:20 17,5 C 16,9 C 17,5 C 20,4 C 20,4 C 2,9 C 57 % 58 % 1015,9 hPa 0,0 l/m 5,3 km/h (1 Bft) S 180 0 min 8,9 C 20,4 C 3,5 km/h (1 Bft)
17.08.2021 14:25 17,5 C 16,9 C 17,3 C 19,9 C 19,9 C 2,4 C 57 % 59 % 1015,9 hPa 0,0 l/m 5,0 km/h (1 Bft) W-SW 247 0 min 8,9 C 19,9 C 4,8 km/h (1 Bft)
17.08.2021 14:30 17,3 C 16,9 C 17,1 C 19,1 C 19,1 C 1,8 C 58 % 60 % 1015,9 hPa 0,0 l/m 4,7 km/h (1 Bft) S 180 0 min 9,0 C 19,1 C 3,9 km/h (1 Bft)
17.08.2021 14:35 17,3 C 16,9 C 17,3 C 19,5 C 19,5 C 2,2 C 58 % 61 % 1015,9 hPa 0,0 l/m 5,1 km/h (1 Bft) SW 225 0 min 9,0 C 19,5 C 5,1 km/h (1 Bft)
17.08.2021 14:40 17,6 C 16,9 C 17,7 C 20,8 C 20,8 C 3,2 C 58 % 59 % 1015,7 hPa 0,0 l/m 5,0 km/h (1 Bft) SW 225 0 min 9,2 C 20,8 C 6,1 km/h (2 Bft)
17.08.2021 14:45 17,6 C 16,9 C 17,7 C 20,8 C 20,8 C 3,2 C 57 % 58 % 1015,7 hPa 0,0 l/m 4,8 km/h (1 Bft) W-SW 247 0 min 9,0 C 20,8 C 6,8 km/h (2 Bft)
17.08.2021 14:50 17,7 C 16,9 C 17,8 C 21,0 C 21,0 C 3,3 C 57 % 58 % 1015,7 hPa 0,0 l/m 6,0 km/h (2 Bft) S-SW 202 5 min 9,1 C 21,0 C 5,5 km/h (1 Bft)
17.08.2021 14:55 17,7 C 16,9 C 17,9 C 20,8 C 20,8 C 3,1 C 57 % 58 % 1015,7 hPa 0,0 l/m 5,6 km/h (1 Bft) SW 225 0 min 9,1 C 20,8 C 7,9 km/h (2 Bft)
17.08.2021 15:00 17,8 C 16,9 C 17,7 C 20,9 C 20,9 C 3,1 C 57 % 58 % 1015,6 hPa 0,0 l/m 5,0 km/h (1 Bft) SW 225 0 min 9,2 C 20,9 C 3,9 km/h (1 Bft)
17.08.2021 15:05 17,7 C 16,9 C 17,7 C 20,3 C 20,3 C 2,6 C 57 % 58 % 1015,6 hPa 0,0 l/m 5,1 km/h (1 Bft) W-SW 247 0 min 9,1 C 20,3 C 5,3 km/h (1 Bft)
17.08.2021 15:10 17,8 C 16,9 C 17,7 C 20,2 C 20,2 C 2,4 C 57 % 59 % 1015,6 hPa 0,0 l/m 4,2 km/h (1 Bft) W-SW 247 0 min 9,2 C 20,2 C 2,9 km/h (1 Bft)
17.08.2021 15:15 17,9 C 16,9 C 17,9 C 20,7 C 20,7 C 2,8 C 57 % 58 % 1015,6 hPa 0,0 l/m 4,2 km/h (1 Bft) NW 315 0 min 9,3 C 20,7 C 5,0 km/h (1 Bft)
17.08.2021 15:20 18,3 C 17,0 C 18,5 C 22,3 C 22,3 C 4,0 C 57 % 58 % 1015,4 hPa 0,0 l/m 4,3 km/h (1 Bft) SW 225 5 min 9,6 C 22,3 C 7,2 km/h (2 Bft)
17.08.2021 15:25 18,2 C 17,0 C 18,6 C 22,6 C 22,6 C 4,4 C 56 % 57 % 1015,4 hPa 0,0 l/m 4,3 km/h (1 Bft) W-SW 247 5 min 9,3 C 22,6 C 3,2 km/h (1 Bft)
17.08.2021 15:30 18,5 C 17,0 C 18,7 C 23,7 C 23,7 C 5,2 C 56 % 57 % 1015,4 hPa 0,0 l/m 4,2 km/h (1 Bft) SW 225 5 min 9,6 C 23,7 C 4,3 km/h (1 Bft)
17.08.2021 15:35 18,5 C 17,0 C 18,5 C 23,1 C 23,1 C 4,6 C 55 % 55 % 1015,4 hPa 0,0 l/m 4,0 km/h (1 Bft) SW 225 5 min 9,3 C 23,1 C 4,3 km/h (1 Bft)
17.08.2021 15:40 18,3 C 17,0 C 18,2 C 21,7 C 21,7 C 3,4 C 55 % 56 % 1015,6 hPa 0,0 l/m 4,2 km/h (1 Bft) S-SW 202 5 min 9,1 C 21,7 C 11,9 km/h (2 Bft)
17.08.2021 15:45 18,2 C 17,0 C 18,0 C 21,0 C 21,0 C 2,8 C 54 % 56 % 1015,6 hPa 0,0 l/m 4,3 km/h (1 Bft) S 180 0 min 8,7 C 21,0 C 8,2 km/h (2 Bft)
17.08.2021 15:50 18,1 C 17,0 C 17,8 C 20,0 C 20,0 C 1,9 C 54 % 56 % 1015,6 hPa 0,0 l/m 4,8 km/h (1 Bft) S 180 0 min 8,6 C 20,0 C 5,0 km/h (1 Bft)
17.08.2021 15:55 18,1 C 17,0 C 17,7 C 19,7 C 19,7 C 1,6 C 55 % 58 % 1015,6 hPa 0,0 l/m 4,2 km/h (1 Bft) S 180 0 min 8,9 C 19,7 C 4,3 km/h (1 Bft)
17.08.2021 16:00 18,0 C 17,0 C 17,7 C 19,5 C 19,5 C 1,5 C 56 % 58 % 1015,6 hPa 0,0 l/m 3,7 km/h (1 Bft) S-SW 202 0 min 9,1 C 19,5 C 4,3 km/h (1 Bft)
17.08.2021 16:05 18,1 C 17,0 C 17,6 C 19,2 C 19,2 C 1,1 C 56 % 58 % 1015,6 hPa 0,0 l/m 3,5 km/h (1 Bft) S 180 0 min 9,2 C 19,2 C 3,2 km/h (1 Bft)
17.08.2021 16:10 18,0 C 17,0 C 17,7 C 19,6 C 19,6 C 1,6 C 57 % 59 % 1015,6 hPa 0,0 l/m 2,7 km/h (1 Bft) S-SO 157 0 min 9,4 C 19,6 C 2,6 km/h (1 Bft)
17.08.2021 16:15 18,2 C 17,0 C 17,7 C 20,0 C 20,0 C 1,8 C 56 % 59 % 1015,6 hPa 0,0 l/m 2,9 km/h (1 Bft) SW 225 0 min 9,3 C 20,0 C 4,5 km/h (1 Bft)
17.08.2021 16:20 18,1 C 17,0 C 17,7 C 19,9 C 19,9 C 1,8 C 55 % 58 % 1015,6 hPa 0,0 l/m 3,9 km/h (1 Bft) W-SW 247 0 min 8,9 C 19,9 C 4,5 km/h (1 Bft)
17.08.2021 16:25 18,0 C 17,0 C 17,4 C 19,5 C 19,5 C 1,5 C 55 % 58 % 1015,6 hPa 0,0 l/m 4,7 km/h (1 Bft) S 180 0 min 8,8 C 19,5 C 4,2 km/h (1 Bft)
17.08.2021 16:30 17,9 C 17,0 C 17,3 C 18,9 C 18,9 C 1,0 C 56 % 59 % 1015,6 hPa 0,0 l/m 4,2 km/h (1 Bft) S-SW 202 0 min 9,0 C 18,9 C 8,0 km/h (2 Bft)
17.08.2021 16:35 17,8 C 17,0 C 17,4 C 18,9 C 18,9 C 1,1 C 56 % 59 % 1015,6 hPa 0,0 l/m 3,5 km/h (1 Bft) W-SW 247 0 min 8,9 C 18,9 C 3,9 km/h (1 Bft)
17.08.2021 16:40 17,9 C 17,0 C 17,5 C 19,1 C 19,1 C 1,2 C 57 % 60 % 1015,8 hPa 0,0 l/m 2,9 km/h (1 Bft) W-SW 247 0 min 9,3 C 19,1 C 3,2 km/h (1 Bft)
17.08.2021 16:45 17,9 C 17,0 C 17,5 C 19,1 C 19,1 C 1,2 C 57 % 60 % 1015,8 hPa 0,0 l/m 3,4 km/h (1 Bft) W-SW 247 0 min 9,3 C 19,1 C 6,4 km/h (2 Bft)
17.08.2021 16:50 17,9 C 17,0 C 17,5 C 19,3 C 19,3 C 1,4 C 56 % 59 % 1015,8 hPa 0,0 l/m 4,2 km/h (1 Bft) S 180 0 min 9,0 C 19,3 C 5,6 km/h (1 Bft)
17.08.2021 16:55 17,9 C 17,0 C 17,5 C 19,3 C 19,3 C 1,4 C 56 % 59 % 1015,8 hPa 0,0 l/m 4,2 km/h (1 Bft) S 180 0 min 9,0 C 19,3 C 3,9 km/h (1 Bft)
17.08.2021 17:00 17,9 C 17,0 C 17,4 C 19,2 C 19,2 C 1,3 C 57 % 60 % 1015,8 hPa 0,0 l/m 3,5 km/h (1 Bft) S 180 0 min 9,3 C 19,2 C 3,9 km/h (1 Bft)
17.08.2021 17:05 17,9 C 17,0 C 17,5 C 19,3 C 19,3 C 1,4 C 57 % 61 % 1015,8 hPa 0,0 l/m 3,4 km/h (1 Bft) SW 225 0 min 9,3 C 19,3 C 4,2 km/h (1 Bft)
17.08.2021 17:10 18,0 C 17,0 C 17,6 C 19,7 C 19,7 C 1,7 C 58 % 62 % 1015,8 hPa 0,0 l/m 2,9 km/h (1 Bft) W 270 0 min 9,6 C 19,7 C 3,4 km/h (1 Bft)
17.08.2021 17:15 18,1 C 17,0 C 17,6 C 19,5 C 19,5 C 1,4 C 57 % 61 % 1015,8 hPa 0,0 l/m 3,1 km/h (1 Bft) W-SW 247 0 min 9,4 C 19,5 C 5,0 km/h (1 Bft)
17.08.2021 17:20 18,1 C 17,1 C 17,9 C 19,9 C 19,9 C 1,8 C 58 % 62 % 1015,8 hPa 0,0 l/m 3,4 km/h (1 Bft) W-SW 247 0 min 9,7 C 19,9 C 3,1 km/h (1 Bft)
17.08.2021 17:25 18,3 C 17,1 C 17,9 C 20,2 C 20,2 C 1,9 C 58 % 61 % 1015,8 hPa 0,0 l/m 3,2 km/h (1 Bft) W-SW 247 0 min 9,9 C 20,2 C 4,8 km/h (1 Bft)
17.08.2021 17:30 18,3 C 17,1 C 17,7 C 19,9 C 19,9 C 1,6 C 58 % 60 % 1015,8 hPa 0,0 l/m 3,1 km/h (1 Bft) SW 225 0 min 9,9 C 19,9 C 4,8 km/h (1 Bft)
17.08.2021 17:35 18,3 C 17,1 C 17,6 C 19,5 C 19,5 C 1,2 C 57 % 61 % 1015,8 hPa 0,0 l/m 3,2 km/h (1 Bft) S-SW 202 0 min 9,6 C 19,5 C 2,7 km/h (1 Bft)
17.08.2021 17:40 18,1 C 17,1 C 17,4 C 19,0 C 19,0 C 0,9 C 57 % 61 % 1015,8 hPa 0,0 l/m 3,1 km/h (1 Bft) SW 225 0 min 9,4 C 19,0 C 2,9 km/h (1 Bft)
17.08.2021 17:45 18,0 C 17,1 C 17,3 C 18,6 C 18,6 C 0,6 C 57 % 61 % 1015,8 hPa 0,0 l/m 2,7 km/h (1 Bft) W-SW 247 0 min 9,4 C 18,6 C 3,1 km/h (1 Bft)
17.08.2021 17:50 17,9 C 17,1 C 17,2 C 18,3 C 18,3 C 0,4 C 58 % 63 % 1015,8 hPa 0,0 l/m 1,8 km/h (1 Bft) S-SW 202 0 min 9,5 C 18,3 C 2,4 km/h (1 Bft)
17.08.2021 17:55 17,9 C 17,1 C 17,2 C 18,2 C 18,2 C 0,3 C 58 % 63 % 1015,8 hPa 0,0 l/m 1,6 km/h (1 Bft) S 180 0 min 9,5 C 18,2 C 1,6 km/h (1 Bft)
17.08.2021 18:00 17,7 C 17,1 C 17,2 C 18,2 C 18,2 C 0,5 C 59 % 63 % 1015,9 hPa 0,0 l/m 2,1 km/h (1 Bft) SW 225 0 min 9,6 C 18,2 C 2,7 km/h (1 Bft)
17.08.2021 18:05 17,8 C 17,1 C 17,2 C 18,3 C 18,3 C 0,5 C 59 % 63 % 1015,9 hPa 0,0 l/m 2,6 km/h (1 Bft) S-SW 202 0 min 9,7 C 18,3 C 3,7 km/h (1 Bft)
17.08.2021 18:10 17,7 C 17,1 C 17,2 C 18,5 C 18,5 C 0,8 C 59 % 63 % 1015,9 hPa 0,0 l/m 3,2 km/h (1 Bft) SW 225 0 min 9,6 C 18,5 C 4,2 km/h (1 Bft)
17.08.2021 18:15 17,7 C 17,1 C 17,1 C 18,5 C 18,5 C 0,8 C 59 % 64 % 1015,9 hPa 0,0 l/m 3,2 km/h (1 Bft) S-SW 202 0 min 9,6 C 18,5 C 3,4 km/h (1 Bft)
17.08.2021 18:20 17,7 C 17,1 C 17,2 C 18,5 C 18,5 C 0,8 C 60 % 64 % 1015,6 hPa 0,0 l/m 2,7 km/h (1 Bft) SO 135 0 min 9,8 C 18,5 C 2,1 km/h (1 Bft)
17.08.2021 18:25 17,7 C 17,1 C 17,1 C 18,5 C 18,5 C 0,8 C 60 % 64 % 1015,6 hPa 0,0 l/m 2,9 km/h (1 Bft) S-SW 202 0 min 9,8 C 18,5 C 5,3 km/h (1 Bft)
17.08.2021 18:30 17,7 C 17,1 C 17,2 C 18,5 C 18,5 C 0,8 C 60 % 64 % 1015,6 hPa 0,0 l/m 2,7 km/h (1 Bft) W-SW 247 0 min 9,8 C 18,5 C 2,9 km/h (1 Bft)
17.08.2021 18:35 17,9 C 17,1 C 17,3 C 18,7 C 18,7 C 0,8 C 60 % 64 % 1015,6 hPa 0,0 l/m 2,4 km/h (1 Bft) SW 225 0 min 10,0 C 18,7 C 2,7 km/h (1 Bft)
17.08.2021 18:40 17,9 C 17,1 C 17,3 C 18,7 C 18,7 C 0,8 C 59 % 63 % 1016,0 hPa 0,0 l/m 2,9 km/h (1 Bft) W-SW 247 0 min 9,8 C 18,7 C 3,7 km/h (1 Bft)
17.08.2021 18:45 17,8 C 17,1 C 17,2 C 18,6 C 18,6 C 0,8 C 59 % 63 % 1016,0 hPa 0,0 l/m 3,5 km/h (1 Bft) W-SW 247 0 min 9,7 C 18,6 C 3,7 km/h (1 Bft)
17.08.2021 18:50 17,7 C 17,1 C 17,1 C 18,3 C 18,3 C 0,6 C 59 % 63 % 1016,0 hPa 0,0 l/m 3,7 km/h (1 Bft) SW 225 0 min 9,6 C 18,3 C 3,2 km/h (1 Bft)
17.08.2021 18:55 17,7 C 17,1 C 17,0 C 18,0 C 18,0 C 0,3 C 59 % 64 % 1016,0 hPa 0,0 l/m 2,9 km/h (1 Bft) SW 225 0 min 9,6 C 18,0 C 2,4 km/h (1 Bft)
17.08.2021 19:00 17,6 C 17,1 C 16,9 C 17,8 C 17,8 C 0,2 C 60 % 64 % 1015,9 hPa 0,0 l/m 2,4 km/h (1 Bft) SW 225 0 min 9,7 C 17,8 C 2,3 km/h (1 Bft)
17.08.2021 19:05 17,5 C 17,1 C 16,9 C 17,6 C 17,6 C 0,1 C 60 % 64 % 1015,9 hPa 0,0 l/m 2,3 km/h (1 Bft) W-SW 247 0 min 9,6 C 17,6 C 3,9 km/h (1 Bft)
17.08.2021 19:10 17,5 C 17,1 C 16,8 C 17,6 C 17,6 C 0,1 C 61 % 65 % 1015,9 hPa 0,0 l/m 2,1 km/h (1 Bft) S 180 0 min 9,9 C 17,6 C 1,6 km/h (1 Bft)
17.08.2021 19:15 17,5 C 17,1 C 16,7 C 17,6 C 17,6 C 0,1 C 61 % 65 % 1015,9 hPa 0,0 l/m 2,1 km/h (1 Bft) SW 225 0 min 9,9 C 17,6 C 2,9 km/h (1 Bft)
17.08.2021 19:20 17,5 C 17,1 C 16,7 C 17,5 C 17,4 C 0,0 C 61 % 65 % 1015,6 hPa 0,0 l/m 1,8 km/h (1 Bft) S-SO 157 0 min 9,9 C 17,4 C 3,7 km/h (1 Bft)
17.08.2021 19:25 17,5 C 17,2 C 16,7 C 17,5 C 17,4 C 0,0 C 61 % 65 % 1015,6 hPa 0,0 l/m 2,1 km/h (1 Bft) SW 225 0 min 9,9 C 17,4 C 4,5 km/h (1 Bft)
17.08.2021 19:30 17,4 C 17,2 C 16,7 C 17,4 C 17,4 C 0,0 C 61 % 66 % 1015,6 hPa 0,0 l/m 2,4 km/h (1 Bft) W 270 0 min 9,8 C 17,4 C 3,1 km/h (1 Bft)
17.08.2021 19:35 17,3 C 17,2 C 16,7 C 17,3 C 17,3 C 0,0 C 62 % 66 % 1015,6 hPa 0,0 l/m 2,3 km/h (1 Bft) N-NW 337 0 min 9,9 C 17,3 C 3,7 km/h (1 Bft)
17.08.2021 19:40 17,2 C 17,2 C 16,5 C 17,2 C 17,1 C 0,0 C 62 % 66 % 1015,8 hPa 0,0 l/m 2,3 km/h (1 Bft) SW 225 0 min 9,9 C 17,1 C 2,3 km/h (1 Bft)
17.08.2021 19:45 17,2 C 17,2 C 16,5 C 17,1 C 17,0 C 0,0 C 62 % 66 % 1015,8 hPa 0,0 l/m 2,6 km/h (1 Bft) S-SW 202 0 min 9,9 C 17,0 C 5,3 km/h (1 Bft)
17.08.2021 19:50 17,1 C 17,2 C 16,4 C 17,0 C 16,8 C 0,0 C 62 % 66 % 1015,8 hPa 0,0 l/m 2,6 km/h (1 Bft) O-NO 67 0 min 9,8 C 16,8 C 3,5 km/h (1 Bft)
17.08.2021 19:55 17,0 C 17,2 C 16,4 C 16,9 C 16,7 C 0,0 C 62 % 66 % 1015,8 hPa 0,0 l/m 2,4 km/h (1 Bft) SW 225 0 min 9,7 C 16,7 C 0,0 km/h (0 Bft)
17.08.2021 20:00 16,9 C 17,2 C 16,3 C 16,8 C 16,6 C 0,0 C 63 % 67 % 1015,7 hPa 0,0 l/m 2,7 km/h (1 Bft) S 180 0 min 9,8 C 16,6 C 3,4 km/h (1 Bft)
17.08.2021 20:05 16,9 C 17,2 C 16,3 C 16,7 C 16,4 C 0,0 C 63 % 67 % 1015,7 hPa 0,0 l/m 2,6 km/h (1 Bft) W-SW 247 0 min 9,8 C 16,4 C 2,9 km/h (1 Bft)
17.08.2021 20:10 16,8 C 17,2 C 16,1 C 16,6 C 16,3 C 0,0 C 63 % 67 % 1015,7 hPa 0,0 l/m 2,6 km/h (1 Bft) SW 225 0 min 9,7 C 16,3 C 2,9 km/h (1 Bft)
17.08.2021 20:15 16,7 C 17,2 C 16,0 C 16,5 C 16,1 C 0,0 C 63 % 67 % 1015,7 hPa 0,0 l/m 2,7 km/h (1 Bft) W 270 0 min 9,6 C 16,1 C 3,4 km/h (1 Bft)
17.08.2021 20:20 16,7 C 17,2 C 15,9 C 16,4 C 15,9 C 0,0 C 63 % 67 % 1015,8 hPa 0,0 l/m 2,4 km/h (1 Bft) SW 225 0 min 9,6 C 15,9 C 2,1 km/h (1 Bft)
17.08.2021 20:25 16,6 C 17,2 C 15,9 C 16,4 C 15,9 C 0,0 C 63 % 67 % 1015,8 hPa 0,0 l/m 1,9 km/h (1 Bft) SW 225 0 min 9,5 C 15,9 C 2,3 km/h (1 Bft)
17.08.2021 20:30 16,5 C 17,2 C 15,8 C 16,3 C 15,8 C 0,0 C 64 % 68 % 1015,8 hPa 0,0 l/m 2,1 km/h (1 Bft) SW 225 0 min 9,7 C 15,8 C 2,6 km/h (1 Bft)
17.08.2021 20:35 16,4 C 17,2 C 15,7 C 16,2 C 15,7 C 0,0 C 64 % 68 % 1015,8 hPa 0,0 l/m 2,1 km/h (1 Bft) SO 135 0 min 9,6 C 15,7 C 3,5 km/h (1 Bft)
17.08.2021 20:40 16,3 C 17,2 C 15,7 C 16,0 C 15,4 C 0,0 C 65 % 69 % 1015,9 hPa 0,0 l/m 1,8 km/h (1 Bft) NW 315 0 min 9,7 C 15,4 C 2,9 km/h (1 Bft)
17.08.2021 20:45 16,3 C 17,2 C 15,5 C 15,9 C 15,2 C 0,0 C 65 % 69 % 1015,9 hPa 0,0 l/m 1,8 km/h (1 Bft) S-SW 202 0 min 9,7 C 15,2 C 3,7 km/h (1 Bft)
17.08.2021 20:50 16,1 C 17,2 C 15,4 C 15,7 C 15,0 C 0,0 C 65 % 70 % 1015,9 hPa 0,0 l/m 1,4 km/h (1 Bft) W-SW 247 0 min 9,5 C 15,0 C 1,9 km/h (1 Bft)
17.08.2021 20:55 16,0 C 17,2 C 15,3 C 15,6 C 14,8 C 0,0 C 66 % 70 % 1015,9 hPa 0,0 l/m 1,1 km/h (1 Bft) SW 225 0 min 9,7 C 14,8 C 1,8 km/h (1 Bft)
17.08.2021 21:00 15,8 C 17,2 C 15,1 C 15,4 C 14,6 C 0,0 C 66 % 70 % 1015,8 hPa 0,0 l/m 1,0 km/h (0 Bft) W-SW 247 0 min 9,5 C 14,6 C 1,8 km/h (1 Bft)
17.08.2021 21:05 15,7 C 17,2 C 15,0 C 15,3 C 14,4 C 0,0 C 66 % 70 % 1015,8 hPa 0,0 l/m 1,0 km/h (0 Bft) W-SW 247 0 min 9,4 C 14,4 C 3,4 km/h (1 Bft)
17.08.2021 21:10 15,6 C 17,2 C 14,9 C 15,1 C 14,1 C 0,0 C 67 % 71 % 1015,8 hPa 0,0 l/m 1,0 km/h (0 Bft) SW 225 0 min 9,5 C 14,1 C 1,6 km/h (1 Bft)
17.08.2021 21:15 15,5 C 17,2 C 14,8 C 15,0 C 14,0 C 0,0 C 67 % 71 % 1015,8 hPa 0,0 l/m 1,0 km/h (0 Bft) SW 225 0 min 9,4 C 14,0 C 1,8 km/h (1 Bft)
17.08.2021 21:20 15,3 C 17,2 C 14,7 C 14,8 C 13,8 C 0,0 C 68 % 71 % 1016,1 hPa 0,0 l/m 0,6 km/h (0 Bft) SW 225 0 min 9,4 C 13,8 C 1,8 km/h (1 Bft)
17.08.2021 21:25 15,3 C 17,3 C 14,7 C 14,8 C 13,7 C 0,0 C 68 % 72 % 1016,1 hPa 0,0 l/m 0,3 km/h (0 Bft) O-SO 112 0 min 9,4 C 13,7 C 0,0 km/h (0 Bft)
17.08.2021 21:30 15,0 C 17,3 C 14,5 C 14,5 C 13,5 C 0,0 C 69 % 72 % 1016,1 hPa 0,0 l/m 0,3 km/h (0 Bft) S 180 0 min 9,4 C 13,5 C 2,3 km/h (1 Bft)
17.08.2021 21:35 14,9 C 17,3 C 14,3 C 14,4 C 13,4 C 0,0 C 69 % 72 % 1016,1 hPa 0,0 l/m 0,3 km/h (0 Bft) SW 225 0 min 9,3 C 13,4 C 0,0 km/h (0 Bft)
17.08.2021 21:40 14,9 C 17,3 C 14,3 C 14,3 C 13,2 C 0,0 C 69 % 73 % 1016,0 hPa 0,0 l/m 0,2 km/h (0 Bft) W 270 0 min 9,3 C 13,2 C 0,0 km/h (0 Bft)
17.08.2021 21:45 14,8 C 17,3 C 14,2 C 14,2 C 13,1 C 0,0 C 70 % 74 % 1016,0 hPa 0,0 l/m 0,0 km/h (0 Bft) S-SO 157 0 min 9,4 C 13,1 C 0,0 km/h (0 Bft)
17.08.2021 21:50 14,7 C 17,3 C 14,1 C 14,1 C 13,0 C 0,0 C 70 % 74 % 1016,0 hPa 0,0 l/m 0,0 km/h (0 Bft) SO 135 0 min 9,3 C 13,0 C 0,0 km/h (0 Bft)
17.08.2021 21:55 14,5 C 17,3 C 14,0 C 14,0 C 13,0 C 0,0 C 71 % 74 % 1016,0 hPa 0,0 l/m 0,0 km/h (0 Bft) O-NO 67 0 min 9,3 C 13,0 C 0,0 km/h (0 Bft)
17.08.2021 22:00 14,4 C 17,3 C 14,0 C 13,9 C 13,0 C 0,0 C 71 % 74 % 1016,2 hPa 0,0 l/m 0,2 km/h (0 Bft) W 270 0 min 9,2 C 13,0 C 0,0 km/h (0 Bft)
17.08.2021 22:05 14,4 C 17,3 C 14,0 C 14,0 C 13,1 C 0,0 C 72 % 75 % 1016,2 hPa 0,0 l/m 0,6 km/h (0 Bft) SO 135 0 min 9,4 C 13,1 C 0,0 km/h (0 Bft)
17.08.2021 22:10 14,5 C 17,3 C 14,1 C 14,1 C 13,4 C 0,0 C 73 % 75 % 1016,2 hPa 0,0 l/m 1,4 km/h (1 Bft) S-SW 202 0 min 9,7 C 13,4 C 4,5 km/h (1 Bft)
17.08.2021 22:15 14,5 C 17,3 C 14,2 C 14,2 C 13,7 C 0,0 C 73 % 75 % 1016,2 hPa 0,0 l/m 2,3 km/h (1 Bft) W-SW 247 0 min 9,7 C 13,7 C 2,4 km/h (1 Bft)
17.08.2021 22:20 14,7 C 17,3 C 14,2 C 14,4 C 13,9 C 0,0 C 73 % 75 % 1016,6 hPa 0,0 l/m 2,3 km/h (1 Bft) S-SW 202 0 min 9,9 C 13,9 C 3,2 km/h (1 Bft)
17.08.2021 22:25 14,7 C 17,3 C 14,2 C 14,5 C 14,0 C 0,0 C 73 % 76 % 1016,6 hPa 0,0 l/m 2,3 km/h (1 Bft) S-SW 202 0 min 9,9 C 14,0 C 4,3 km/h (1 Bft)
17.08.2021 22:30 14,7 C 17,3 C 14,2 C 14,5 C 14,1 C 0,0 C 73 % 75 % 1016,6 hPa 0,0 l/m 2,6 km/h (1 Bft) SO 135 0 min 9,9 C 14,1 C 3,5 km/h (1 Bft)
17.08.2021 22:35 14,7 C 17,3 C 14,2 C 14,5 C 14,2 C 0,0 C 72 % 75 % 1016,6 hPa 0,0 l/m 2,6 km/h (1 Bft) SW 225 0 min 9,7 C 14,2 C 2,1 km/h (1 Bft)
17.08.2021 22:40 14,7 C 17,3 C 14,2 C 14,5 C 14,1 C 0,0 C 72 % 74 % 1016,4 hPa 0,0 l/m 2,6 km/h (1 Bft) W-SW 247 0 min 9,7 C 14,1 C 3,1 km/h (1 Bft)
17.08.2021 22:45 14,6 C 17,3 C 14,1 C 14,4 C 14,0 C 0,0 C 72 % 75 % 1016,4 hPa 0,0 l/m 1,9 km/h (1 Bft) W-SW 247 0 min 9,6 C 14,0 C 0,0 km/h (0 Bft)
17.08.2021 22:50 14,5 C 17,3 C 14,0 C 14,3 C 13,8 C 0,0 C 72 % 75 % 1016,4 hPa 0,0 l/m 1,1 km/h (1 Bft) SW 225 0 min 9,5 C 13,8 C 1,6 km/h (1 Bft)
17.08.2021 22:55 14,4 C 17,2 C 14,0 C 14,2 C 13,8 C 0,0 C 72 % 75 % 1016,4 hPa 0,0 l/m 1,3 km/h (1 Bft) W-SW 247 0 min 9,4 C 13,8 C 2,4 km/h (1 Bft)
17.08.2021 23:00 14,4 C 17,2 C 13,9 C 14,2 C 13,7 C 0,0 C 71 % 74 % 1016,4 hPa 0,0 l/m 1,8 km/h (1 Bft) W-SW 247 0 min 9,2 C 13,7 C 3,9 km/h (1 Bft)
17.08.2021 23:05 14,4 C 17,2 C 13,9 C 14,1 C 13,6 C 0,0 C 71 % 74 % 1016,4 hPa 0,0 l/m 2,1 km/h (1 Bft) S-SW 202 0 min 9,2 C 13,6 C 2,9 km/h (1 Bft)
17.08.2021 23:10 14,2 C 17,2 C 13,7 C 13,9 C 13,4 C 0,0 C 71 % 74 % 1016,4 hPa 0,0 l/m 2,6 km/h (1 Bft) SW 225 0 min 9,0 C 13,4 C 2,4 km/h (1 Bft)
17.08.2021 23:15 14,2 C 17,2 C 13,6 C 13,9 C 13,2 C 0,0 C 71 % 74 % 1016,4 hPa 0,0 l/m 2,7 km/h (1 Bft) S 180 0 min 9,0 C 13,2 C 3,9 km/h (1 Bft)
17.08.2021 23:20 14,0 C 17,2 C 13,5 C 13,7 C 13,0 C 0,0 C 71 % 74 % 1016,3 hPa 0,0 l/m 2,6 km/h (1 Bft) SW 225 0 min 8,8 C 13,0 C 2,9 km/h (1 Bft)
17.08.2021 23:25 14,0 C 17,2 C 13,4 C 13,6 C 12,8 C 0,0 C 71 % 74 % 1016,3 hPa 0,0 l/m 2,3 km/h (1 Bft) S-SW 202 0 min 8,8 C 12,8 C 2,9 km/h (1 Bft)
17.08.2021 23:30 13,9 C 17,2 C 13,4 C 13,5 C 12,6 C 0,0 C 71 % 74 % 1016,3 hPa 0,0 l/m 2,3 km/h (1 Bft) SW 225 0 min 8,7 C 12,6 C 3,9 km/h (1 Bft)
17.08.2021 23:35 13,9 C 17,2 C 13,3 C 13,5 C 12,6 C 0,0 C 71 % 74 % 1016,3 hPa 0,0 l/m 2,4 km/h (1 Bft) S-SW 202 0 min 8,7 C 12,6 C 2,3 km/h (1 Bft)
17.08.2021 23:40 13,8 C 17,2 C 13,2 C 13,4 C 12,5 C 0,0 C 71 % 74 % 1016,4 hPa 0,0 l/m 2,1 km/h (1 Bft) SW 225 0 min 8,6 C 12,5 C 4,3 km/h (1 Bft)
17.08.2021 23:45 13,7 C 17,2 C 13,2 C 13,3 C 12,4 C 0,0 C 71 % 75 % 1016,4 hPa 0,0 l/m 1,9 km/h (1 Bft) S-SW 202 0 min 8,5 C 12,4 C 2,7 km/h (1 Bft)
17.08.2021 23:50 13,6 C 17,2 C 13,1 C 13,2 C 12,4 C 0,0 C 71 % 75 % 1016,4 hPa 0,0 l/m 2,6 km/h (1 Bft) SW 225 0 min 8,4 C 12,4 C 2,1 km/h (1 Bft)
17.08.2021 23:55 13,6 C 17,2 C 13,1 C 13,2 C 12,4 C 0,0 C 71 % 75 % 1016,4 hPa 0,0 l/m 2,6 km/h (1 Bft) W-SW 247 0 min 8,4 C 12,4 C 2,6 km/h (1 Bft)
_ Min-Zeit 01:50 12:45 05:00 01:50 01:40 00:00 15:45 15:35 00:40 - 00:10 - - - 23:50 01:40 00:00
Minimum _ 10,9 C 16,9 C 10,9 C 10,8 C 10,7 C 0,0 C 54 % 55 % 1013,2 hPa - 0,0 km/h (0 Bft) - - - 8,4 C 10,7 C 0,0 km/h (0 Bft)
_ Max-Zeit 15:30 00:00 15:30 15:30 15:30 15:30 01:05 02:40 22:20 00:00 14:50 - - 08:10 09:30 15:30 08:50
Maximum _ 18,5 C 19,4 C 18,7 C 23,7 C 23,7 C 5,2 C 88 % 94 % 1016,6 hPa 0,0 l/m 6,0 km/h
S-SW (2 Bft)
- - 5 min 11,1 C 23,7 C 17,7 km/h
SW (3 Bft)
Durchschnitt _ 14,4 C 17,6 C 14,3 C 15,4 C 15,3 C 1,1 C 73 % 79 % 1015,2 hPa #0,0 l/m 2,6 km/h (1 Bft) SW - #2:00 h 9,5 C 15,3 C 3,7 km/h (1 Bft)
2021 www.wetterstation-wechselburg.de